Location: Freistadt
(48.5112°N, 14.5013°E)
Time: 09:36:54
(UTC+02:00)

PCSat - Pass Details

Date: 02 April 2023
Orbit: 783 x 794 km, 67.1° (Epoch: 29 May)

Event Time Altitude Azimuth Distance (km) Brightness Sun altitude
Rises 01:06:57 0° 322° (NW) 3,301 13.4 -36.8°
Reaches altitude 10° 01:09:24 10° 318° (NW) 2,369 12.5 -36.8°
Enters shadow 01:10:55 19° 313° (NW) 1,822 11.7 -36.7°
